Radiation Dose at Monitoring Post of Fukushima Daini Nuclear Power Station
Date,Time,MP-1(microSv/h),MP-2(microSv/h),MP-3(microSv/h),MP-4(microSv/h),MP-5(microSv/h),MP-6(microSv/h),MP-7(microSv/h),Wind Direction,Wind Velocity(m/s),Rain
2022/01/24,00:00,0.160,0.147,0.231,0.223,0.225,0.126,0.080,southwest,3.3,No
2022/01/24,00:10,0.160,0.146,0.230,0.222,0.224,0.127,0.080,southwest,6.3,No
2022/01/24,00:20,0.160,0.148,0.230,0.223,0.225,0.127,0.080,southwest,7.0,No
2022/01/24,00:30,0.160,0.147,0.230,0.222,0.225,0.127,0.080,west-southwest,4.1,No
2022/01/24,00:40,0.159,0.147,0.230,0.222,0.224,0.127,0.080,west-southwest,2.7,No
2022/01/24,00:50,0.159,0.147,0.231,0.222,0.224,0.126,0.081,west-southwest,3.0,No
2022/01/24,01:00,0.160,0.146,0.230,0.223,0.225,0.127,0.080,west-northwest,0.7,No
2022/01/24,01:10,0.160,0.147,0.230,0.222,0.225,0.126,0.081,west,0.8,No
2022/01/24,01:20,0.160,0.148,0.231,0.223,0.224,0.127,0.080,-,CALM,No
2022/01/24,01:30,0.159,0.147,0.231,0.223,0.225,0.125,0.081,northwest,1.0,No
2022/01/24,01:40,0.160,0.148,0.229,0.222,0.225,0.126,0.081,west,1.6,No
2022/01/24,01:50,0.160,0.147,0.230,0.223,0.225,0.126,0.080,west-southwest,0.7,No
2022/01/24,02:00,0.160,0.146,0.230,0.223,0.225,0.126,0.080,-,CALM,No
2022/01/24,02:10,0.160,0.147,0.230,0.223,0.225,0.127,0.081,west-northwest,1.3,No
2022/01/24,02:20,0.160,0.147,0.230,0.223,0.223,0.127,0.080,west-northwest,2.7,No
2022/01/24,02:30,0.159,0.146,0.230,0.223,0.226,0.125,0.080,northwest,2.1,No
2022/01/24,02:40,0.159,0.145,0.230,0.223,0.224,0.127,0.080,northwest,1.9,No
2022/01/24,02:50,0.160,0.147,0.231,0.222,0.225,0.127,0.080,northwest,3.5,No
2022/01/24,03:00,0.160,0.147,0.231,0.224,0.225,0.126,0.080,north-northwest,4.4,No
2022/01/24,03:10,0.160,0.148,0.230,0.223,0.225,0.126,0.080,northwest,7.4,No
2022/01/24,03:20,0.160,0.148,0.230,0.223,0.225,0.128,0.080,west-northwest,9.3,No
2022/01/24,03:30,0.160,0.148,0.230,0.222,0.225,0.126,0.080,west-northwest,7.4,No
2022/01/24,03:40,0.159,0.147,0.231,0.223,0.225,0.126,0.081,west-northwest,7.7,No
2022/01/24,03:50,0.160,0.147,0.230,0.223,0.225,0.126,0.081,west-northwest,10.2,No
2022/01/24,04:00,0.159,0.147,0.230,0.223,0.225,0.126,0.081,west-northwest,9.2,No
2022/01/24,04:10,0.160,0.148,0.231,0.224,0.224,0.126,0.080,west-northwest,10.0,No
2022/01/24,04:20,0.159,0.147,0.230,0.222,0.225,0.126,0.080,west-northwest,9.9,No
2022/01/24,04:30,0.160,0.147,0.231,0.223,0.225,0.125,0.080,west-northwest,10.6,No
2022/01/24,04:40,0.160,0.147,0.230,0.224,0.224,0.126,0.080,west-northwest,10.2,No
2022/01/24,04:50,0.160,0.146,0.230,0.223,0.224,0.126,0.080,west-northwest,9.4,No
2022/01/24,05:00,0.159,0.148,0.231,0.223,0.225,0.127,0.081,west-northwest,9.2,No
2022/01/24,05:10,0.159,0.147,0.231,0.223,0.225,0.126,0.080,west-northwest,8.4,No
2022/01/24,05:20,0.160,0.148,0.231,0.223,0.224,0.127,0.080,west-northwest,8.2,No
2022/01/24,05:30,0.160,0.147,0.230,0.224,0.226,0.127,0.080,west-northwest,8.2,No
2022/01/24,05:40,0.160,0.147,0.230,0.222,0.224,0.126,0.080,west-northwest,5.7,No
2022/01/24,05:50,0.159,0.147,0.231,0.224,0.225,0.127,0.080,west-northwest,6.5,No
2022/01/24,06:00,0.160,0.148,0.231,0.223,0.224,0.125,0.080,west-northwest,4.6,No
2022/01/24,06:10,0.160,0.147,0.231,0.224,0.224,0.125,0.081,northwest,4.1,No
2022/01/24,06:20,0.160,0.146,0.231,0.223,0.225,0.127,0.080,west-northwest,5.2,No
2022/01/24,06:30,0.159,0.147,0.230,0.223,0.225,0.126,0.080,west-northwest,5.2,No
2022/01/24,06:40,0.160,0.147,0.230,0.224,0.225,0.127,0.081,west-northwest,5.7,No
2022/01/24,06:50,0.160,0.147,0.232,0.224,0.226,0.126,0.081,west-northwest,5.9,No
2022/01/24,07:00,0.160,0.148,0.230,0.223,0.225,0.127,0.081,northwest,5.7,No
2022/01/24,07:10,0.160,0.147,0.231,0.223,0.226,0.126,0.081,northwest,6.5,No
2022/01/24,07:20,0.160,0.147,0.229,0.223,0.225,0.126,0.080,west-northwest,6.1,No
2022/01/24,07:30,0.159,0.147,0.231,0.223,0.223,0.126,0.080,northwest,6.1,No
2022/01/24,07:40,0.160,0.147,0.231,0.223,0.225,0.126,0.081,northwest,4.4,No
2022/01/24,07:50,0.160,0.147,0.230,0.224,0.224,0.126,0.080,northwest,4.1,No
2022/01/24,08:00,0.159,0.146,0.231,0.223,0.225,0.128,0.080,north-northwest,4.1,No
2022/01/24,08:10,0.159,0.147,0.230,0.222,0.225,0.126,0.080,northwest,4.6,No
2022/01/24,08:20,0.160,0.146,0.231,0.223,0.225,0.126,0.080,north-northwest,5.0,No
2022/01/24,08:30,0.159,0.146,0.230,0.223,0.225,0.126,0.080,north-northwest,3.9,No
2022/01/24,08:40,0.160,0.147,0.231,0.222,0.224,0.126,0.080,north-northwest,5.7,No
2022/01/24,08:50,0.159,0.147,0.231,0.222,0.223,0.126,0.080,northwest,7.4,No
2022/01/24,09:00,0.160,0.148,0.229,0.222,0.223,0.126,0.079,north-northwest,6.1,No
2022/01/24,09:10,0.160,0.146,0.231,0.223,0.224,0.126,0.080,north-northwest,7.2,No
2022/01/24,09:20,0.160,0.147,0.230,0.222,0.224,0.126,0.079,north-northwest,6.6,No
2022/01/24,09:30,0.159,0.146,0.230,0.222,0.225,0.126,0.080,north-northwest,7.6,No
2022/01/24,09:40,0.159,0.147,0.231,0.223,0.225,0.126,0.079,north-northwest,6.5,No
2022/01/24,09:50,0.159,0.146,0.229,0.222,0.224,0.126,0.079,north-northwest,6.5,No
2022/01/24,10:00,0.159,0.146,0.230,0.223,0.224,0.127,0.079,north-northwest,5.4,No
2022/01/24,10:10,0.160,0.146,0.231,0.223,0.225,0.126,0.080,north-northwest,6.3,No
2022/01/24,10:20,0.159,0.146,0.231,0.222,0.224,0.125,0.079,north-northwest,5.5,No
2022/01/24,10:30,0.158,0.147,0.229,0.222,0.225,0.124,0.080,north-northwest,7.5,No
2022/01/24,10:40,0.159,0.147,0.229,0.222,0.225,0.123,0.080,north-northwest,7.0,No
2022/01/24,10:50,0.159,0.146,0.230,0.221,0.224,0.124,0.080,north-northwest,7.4,No
2022/01/24,11:00,0.159,0.147,0.229,0.221,0.226,0.124,0.080,north-northwest,6.8,No
2022/01/24,11:10,0.160,0.147,0.230,0.223,0.224,0.124,0.080,north-northwest,7.6,No
2022/01/24,11:20,0.159,0.147,0.231,0.222,0.225,0.125,0.080,north-northwest,8.3,No
2022/01/24,11:30,0.160,0.147,0.230,0.222,0.224,0.126,0.080,north,9.2,No
2022/01/24,11:40,0.160,0.146,0.230,0.223,0.224,0.125,0.080,north,8.4,No
2022/01/24,11:50,0.158,0.146,0.231,0.221,0.225,0.126,0.079,north-northwest,9.5,No
2022/01/24,12:00,0.159,0.147,0.230,0.223,0.223,0.126,0.079,northwest,9.2,No
2022/01/24,12:10,0.159,0.147,0.230,0.221,0.226,0.126,0.079,northwest,7.6,No
2022/01/24,12:20,0.159,0.147,0.231,0.222,0.224,0.126,0.080,north-northwest,9.2,No
2022/01/24,12:30,0.159,0.147,0.230,0.223,0.224,0.126,0.080,north-northwest,8.4,No
2022/01/24,12:40,0.160,0.146,0.230,0.222,0.224,0.126,0.079,north-northwest,7.0,No
2022/01/24,12:50,0.160,0.147,0.231,0.223,0.224,0.126,0.079,northwest,8.4,No
2022/01/24,13:00,0.159,0.146,0.230,0.222,0.225,0.126,0.080,northwest,9.8,No
2022/01/24,13:10,0.158,0.147,0.231,0.221,0.224,0.126,0.079,northwest,8.6,No
2022/01/24,13:20,0.159,0.147,0.229,0.223,0.225,0.126,0.080,northwest,6.9,No
2022/01/24,13:30,0.159,0.147,0.232,0.221,0.225,0.126,0.079,northwest,9.2,No
2022/01/24,13:40,0.158,0.147,0.230,0.223,0.224,0.126,0.080,northwest,9.0,No
2022/01/24,13:50,0.158,0.146,0.230,0.223,0.225,0.126,0.080,north-northwest,8.3,No
2022/01/24,14:00,0.159,0.146,0.231,0.222,0.226,0.126,0.080,north-northwest,10.1,No
2022/01/24,14:10,0.160,0.147,0.231,0.224,0.224,0.126,0.080,northwest,10.0,No
2022/01/24,14:20,0.159,0.147,0.230,0.222,0.225,0.126,0.080,northwest,9.2,No
2022/01/24,14:30,0.159,0.147,0.231,0.224,0.224,0.126,0.079,north-northwest,8.2,No
2022/01/24,14:40,0.159,0.147,0.231,0.223,0.226,0.124,0.079,northwest,9.3,No
2022/01/24,14:50,0.160,0.146,0.230,0.223,0.225,0.126,0.080,north-northwest,9.0,No
2022/01/24,15:00,0.159,0.147,0.231,0.223,0.225,0.126,0.080,northwest,9.2,No
2022/01/24,15:10,0.159,0.148,0.231,0.223,0.225,0.126,0.079,northwest,7.9,No
2022/01/24,15:20,0.160,0.147,0.231,0.223,0.226,0.125,0.080,north-northwest,8.4,No
2022/01/24,15:30,0.160,0.147,0.230,0.222,0.225,0.126,0.079,northwest,9.5,No
2022/01/24,15:40,0.161,0.148,0.231,0.223,0.225,0.126,0.080,northwest,9.2,No
2022/01/24,15:50,0.160,0.148,0.231,0.224,0.226,0.127,0.079,west-northwest,9.3,No
2022/01/24,16:00,0.161,0.147,0.231,0.223,0.224,0.126,0.079,northwest,9.6,No
2022/01/24,16:10,0.161,0.147,0.232,0.223,0.224,0.126,0.080,northwest,8.4,No
2022/01/24,16:20,0.160,0.148,0.230,0.224,0.226,0.127,0.080,northwest,8.1,No
2022/01/24,16:30,0.160,0.148,0.232,0.224,0.225,0.126,0.080,northwest,6.2,No
2022/01/24,16:40,0.160,0.147,0.231,0.225,0.225,0.126,0.080,north-northwest,5.8,No
2022/01/24,16:50,0.160,0.147,0.231,0.223,0.226,0.126,0.080,north-northwest,6.2,No
2022/01/24,17:00,0.160,0.147,0.230,0.223,0.225,0.126,0.081,northwest,8.6,No
2022/01/24,17:10,0.160,0.148,0.230,0.223,0.226,0.126,0.080,north-northwest,9.3,No
2022/01/24,17:20,0.161,0.147,0.232,0.224,0.224,0.127,0.080,north-northwest,7.2,No
2022/01/24,17:30,0.161,0.147,0.230,0.224,0.226,0.125,0.080,northwest,6.1,No
2022/01/24,17:40,0.160,0.147,0.231,0.224,0.225,0.126,0.079,northwest,7.0,No
2022/01/24,17:50,0.160,0.147,0.231,0.224,0.226,0.126,0.081,north-northwest,6.5,No
2022/01/24,18:00,0.161,0.148,0.231,0.223,0.225,0.126,0.080,northwest,9.6,No
2022/01/24,18:10,0.160,0.147,0.231,0.223,0.224,0.126,0.080,northwest,9.2,No
2022/01/24,18:20,0.159,0.147,0.231,0.224,0.223,0.126,0.080,north-northwest,5.9,No
2022/01/24,18:30,0.161,0.147,0.231,0.224,0.225,0.126,0.080,north-northwest,5.4,No
2022/01/24,18:40,0.160,0.147,0.232,0.224,0.225,0.126,0.080,north-northwest,5.0,No
2022/01/24,18:50,0.160,0.148,0.231,0.223,0.226,0.125,0.080,north-northwest,5.2,No
2022/01/24,19:00,0.159,0.148,0.231,0.224,0.226,0.126,0.080,north-northwest,4.8,No
2022/01/24,19:10,0.160,0.147,0.231,0.223,0.224,0.126,0.080,north-northwest,5.4,No
2022/01/24,19:20,0.161,0.148,0.230,0.223,0.225,0.126,0.080,north-northwest,6.1,No
2022/01/24,19:30,0.160,0.147,0.232,0.223,0.225,0.126,0.080,north-northwest,7.1,No
2022/01/24,19:40,0.159,0.148,0.230,0.224,0.225,0.127,0.080,north-northwest,6.0,No
2022/01/24,19:50,0.160,0.147,0.231,0.222,0.225,0.127,0.081,north-northwest,4.9,No
2022/01/24,20:00,0.160,0.147,0.231,0.224,0.225,0.127,0.080,north-northwest,7.4,No
2022/01/24,20:10,0.159,0.148,0.231,0.223,0.224,0.126,0.081,north-northwest,7.1,No
2022/01/24,20:20,0.161,0.148,0.232,0.223,0.225,0.125,0.081,north-northwest,5.5,No
2022/01/24,20:30,0.160,0.147,0.231,0.224,0.224,0.127,0.080,north-northwest,5.2,No
2022/01/24,20:40,0.159,0.148,0.230,0.224,0.224,0.127,0.080,north-northwest,6.0,No
2022/01/24,20:50,0.160,0.147,0.231,0.223,0.226,0.127,0.080,north-northwest,6.6,No
2022/01/24,21:00,0.160,0.147,0.231,0.223,0.225,0.126,0.079,north-northwest,7.2,No
2022/01/24,21:10,0.160,0.148,0.232,0.224,0.225,0.126,0.081,north-northwest,8.5,No
2022/01/24,21:20,0.160,0.148,0.230,0.225,0.225,0.127,0.080,north-northwest,7.7,No
2022/01/24,21:30,0.160,0.147,0.232,0.223,0.224,0.126,0.080,north-northwest,6.6,No
2022/01/24,21:40,0.160,0.147,0.232,0.224,0.224,0.127,0.080,north-northwest,7.5,No
2022/01/24,21:50,0.160,0.148,0.231,0.225,0.225,0.126,0.080,north-northwest,6.8,No
2022/01/24,22:00,0.160,0.148,0.231,0.224,0.225,0.126,0.080,north-northwest,6.1,No
2022/01/24,22:10,0.160,0.148,0.232,0.223,0.226,0.127,0.080,north-northwest,6.9,No
2022/01/24,22:20,0.160,0.148,0.230,0.224,0.225,0.126,0.080,northwest,7.5,No
2022/01/24,22:30,0.160,0.147,0.233,0.223,0.225,0.126,0.080,northwest,7.6,No
2022/01/24,22:40,0.161,0.149,0.232,0.225,0.225,0.127,0.080,north-northwest,3.8,No
2022/01/24,22:50,0.160,0.148,0.232,0.224,0.225,0.127,0.080,northwest,5.5,No
2022/01/24,23:00,0.160,0.147,0.231,0.224,0.224,0.126,0.081,northwest,6.1,No
2022/01/24,23:10,0.161,0.148,0.231,0.224,0.224,0.126,0.080,northwest,5.5,No
2022/01/24,23:20,0.160,0.148,0.230,0.223,0.225,0.126,0.081,northwest,4.8,No
2022/01/24,23:30,0.160,0.148,0.231,0.223,0.225,0.126,0.080,north-northwest,5.4,No
2022/01/24,23:40,0.160,0.147,0.232,0.224,0.225,0.126,0.081,northwest,3.7,No
2022/01/24,23:50,0.160,0.147,0.231,0.223,0.225,0.126,0.081,north,3.0,No
